| time (UTC) | temp F | wind direction | speed MPH | gust MPH | rain 1hr in | rain 24hr in | rain mn in | humidity % | barometer mb |
| 20260509083048 | 64 | 183 | 3.0 | 6.0 | 0.00 | 0.20 | 0.02 | 89 | 1009.2 |
| 20260509081542 | 65 | 121 | 0.0 | 0.0 | 0.00 | 0.20 | 0.02 | 88 | 1009.6 |
| 20260509080042 | 65 | 109 | 1.0 | 2.0 | 0.00 | 0.20 | 0.02 | 87 | 1009.7 |
| 20260509074545 | 65 | 108 | 2.0 | 4.0 | 0.00 | 0.20 | 0.02 | 86 | 1009.5 |
| 20260509073038 | 65 | 108 | 4.0 | 7.0 | 0.00 | 0.20 | 0.02 | 86 | 1009.7 |
| 20260509071536 | 65 | 155 | 0.0 | 0.0 | 0.00 | 0.20 | 0.02 | 86 | 1010.0 |
| 20260509070040 | 65 | 155 | 2.0 | 10.0 | 0.00 | 0.20 | 0.02 | 87 | 1009.7 |
| 20260509064538 | 65 | 125 | 2.0 | 6.0 | 0.00 | 0.20 | 0.02 | 86 | 1010.2 |
| 20260509063033 | 65 | 87 | 2.0 | 6.0 | 0.00 | 0.20 | 0.02 | 85 | 1010.5 |
| 20260509061534 | 66 | 97 | 3.0 | 6.0 | 0.00 | 0.20 | 0.02 | 86 | 1010.6 |
| 20260509060037 | 66 | 153 | 3.0 | 7.0 | 0.01 | 0.20 | 0.02 | 86 | 1010.2 |
| 20260509054531 | 66 | 148 | 7.0 | 12.0 | 0.09 | 0.20 | 0.02 | 86 | 1010.0 |
| 20260509053027 | 66 | 137 | 7.0 | 14.0 | 0.20 | 0.20 | 0.02 | 85 | 1009.9 |
| 20260509051524 | 67 | 182 | 9.0 | 16.0 | 0.20 | 0.20 | 0.02 | 85 | 1009.5 |
| 20260509050039 | 68 | 132 | 5.0 | 11.0 | 0.18 | 0.18 | 0.00 | 80 | 1010.4 |
| 20260509044526 | 70 | 68 | 12.0 | 25.0 | 0.10 | 0.10 | 0.10 | 80 | 1010.8 |
| 20260509043024 | 70 | 63 | 9.0 | 16.0 | 0.00 | 0.00 | 0.00 | 79 | 1010.7 |
| 20260509041524 | 70 | 78 | 11.0 | 14.0 | 0.00 | 0.00 | 0.00 | 77 | 1009.8 |
| 20260509040023 | 71 | 76 | 6.0 | 9.0 | 0.00 | 0.00 | 0.00 | 76 | 1009.9 |
| 20260509034522 | 70 | 155 | 2.0 | 5.0 | 0.00 | 0.00 | 0.00 | 75 | 1009.6 |
| 20260509033022 | 70 | 155 | 2.0 | 5.0 | 0.00 | 0.00 | 0.00 | 75 | 1009.4 |
| 20260509031530 | 70 | 157 | 0.0 | 6.0 | 0.00 | 0.00 | 0.00 | 75 | 1009.5 |
| 20260509030026 | 71 | 160 | 6.0 | 9.0 | 0.00 | 0.00 | 0.00 | 75 | 1009.2 |
| 20260509024533 | 71 | 135 | 2.0 | 7.0 | 0.00 | 0.00 | 0.00 | 72 | 1009.1 |
| 20260509023020 | 71 | 124 | 3.0 | 6.0 | 0.00 | 0.00 | 0.00 | 71 | 1009.0 |
| 20260509021519 | 71 | 119 | 3.0 | 6.0 | 0.00 | 0.00 | 0.00 | 69 | 1008.7 |
| 20260509020018 | 72 | 125 | 1.0 | 3.0 | 0.00 | 0.00 | 0.00 | 68 | 1008.8 |
| 20260509014518 | 72 | 125 | 1.0 | 4.0 | 0.00 | 0.00 | 0.00 | 68 | 1008.4 |
| 20260509013025 | 73 | 120 | 3.0 | 6.0 | 0.00 | 0.00 | 0.00 | 67 | 1008.1 |
| 20260509011517 | 74 | 128 | 1.0 | 4.0 | 0.00 | 0.00 | 0.00 | 66 | 1008.0 |
| 20260509010022 | 75 | 132 | 0.0 | 7.0 | 0.00 | 0.00 | 0.00 | 66 | 1007.9 |
| 20260509004516 | 75 | 139 | 3.0 | 7.0 | 0.00 | 0.00 | 0.00 | 65 | 1007.8 |
| 20260509003016 | 76 | 139 | 4.0 | 9.0 | 0.00 | 0.00 | 0.00 | 64 | 1007.8 |
| 20260509001515 | 77 | 161 | 6.0 | 11.0 | 0.00 | 0.00 | 0.00 | 63 | 1007.8 |
| 20260509000015 | 78 | 153 | 6.0 | 11.0 | 0.00 | 0.00 | 0.00 | 62 | 1008.1 |
| 20260508234514 | 79 | 158 | 8.0 | 12.0 | 0.00 | 0.00 | 0.00 | 61 | 1008.3 |
| 20260508233013 | 80 | 159 | 8.0 | 12.0 | 0.00 | 0.00 | 0.00 | 61 | 1008.2 |
| 20260508231512 | 80 | 163 | 5.0 | 10.0 | 0.00 | 0.00 | 0.00 | 61 | 1008.2 |
| 20260508230011 | 78 | 207 | 7.0 | 10.0 | 0.00 | 0.00 | 0.00 | 65 | 1008.1 |
| 20260508224510 | 77 | 13 | 2.0 | 11.0 | 0.00 | 0.00 | 0.00 | 66 | 1007.8 |
| 20260508223019 | 75 | 123 | 11.0 | 17.0 | 0.00 | 0.00 | 0.00 | 66 | 1006.0 |
| 20260508221508 | 76 | 216 | 1.0 | 7.0 | 0.00 | 0.00 | 0.00 | 64 | 1009.2 |
| 20260508220011 | 77 | 197 | 3.0 | 7.0 | 0.00 | 0.00 | 0.00 | 62 | 1009.0 |
| 20260508214503 | 78 | 213 | 3.0 | 7.0 | 0.00 | 0.00 | 0.00 | 59 | 1009.3 |
| 20260508213008 | 79 | 213 | 3.0 | 9.0 | 0.00 | 0.00 | 0.00 | 59 | 1009.0 |
| 20260508211501 | 80 | 175 | 1.0 | 7.0 | 0.00 | 0.00 | 0.00 | 59 | 1009.2 |
| 20260508210100 | 82 | 150 | 3.0 | 9.0 | 0.00 | 0.00 | 0.00 | 59 | 1009.1 |
| 20260508204617 | 82 | 162 | 3.0 | 8.0 | 0.00 | 0.00 | 0.00 | 61 | 1009.2 |
| 20260508203059 | 81 | 127 | 3.0 | 9.0 | 0.00 | 0.00 | 0.00 | 61 | 1009.4 |
| 20260508201607 | 81 | 106 | 2.0 | 9.0 | 0.00 | 0.00 | 0.00 | 62 | 1009.3 |
| 20260508200101 | 79 | 158 | 5.0 | 11.0 | 0.00 | 0.00 | 0.00 | 63 | 1009.8 |
| 20260508194545 | 78 | 111 | 6.0 | 9.0 | 0.00 | 0.00 | 0.00 | 65 | 1009.9 |
| 20260508193041 | 77 | 154 | 3.0 | 10.0 | 0.00 | 0.00 | 0.00 | 66 | 1010.5 |
| 20260508191540 | 78 | 186 | 5.0 | 11.0 | 0.00 | 0.00 | 0.00 | 65 | 1010.5 |
| 20260508190043 | 77 | 144 | 5.0 | 9.0 | 0.00 | 0.00 | 0.00 | 66 | 1010.8 |
| 20260508184535 | 77 | 161 | 5.0 | 11.0 | 0.00 | 0.00 | 0.00 | 64 | 1011.0 |
| 20260508183036 | 77 | 188 | 5.0 | 10.0 | 0.00 | 0.00 | 0.00 | 66 | 1011.1 |
| 20260508181543 | 76 | 183 | 4.0 | 8.0 | 0.00 | 0.00 | 0.00 | 66 | 1011.5 |
| 20260508180025 | 75 | 227 | 1.0 | 9.0 | 0.00 | 0.00 | 0.00 | 67 | 1012.0 |
| 20260508174528 | 75 | 186 | 3.0 | 8.0 | 0.00 | 0.00 | 0.00 | 66 | 1012.2 |
| 20260508173022 | 75 | 190 | 2.0 | 10.0 | 0.00 | 0.00 | 0.00 | 68 | 1012.4 |
| 20260508171518 | 74 | 186 | 7.0 | 10.0 | 0.00 | 0.00 | 0.00 | 68 | 1012.6 |
| 20260508170019 | 75 | 156 | 6.0 | 13.0 | 0.00 | 0.00 | 0.00 | 69 | 1012.9 |
| 20260508164527 | 74 | 146 | 5.0 | 12.0 | 0.00 | 0.00 | 0.00 | 70 | 1013.0 |
| 20260508163011 | 74 | 196 | 7.0 | 13.0 | 0.00 | 0.00 | 0.00 | 72 | 1013.2 |
| 20260508161509 | 73 | 192 | 6.0 | 13.0 | 0.00 | 0.00 | 0.00 | 75 | 1013.5 |
| 20260508160005 | 72 | 189 | 8.0 | 15.0 | 0.00 | 0.00 | 0.00 | 76 | 1013.6 |
| 20260508154503 | 72 | 158 | 9.0 | 12.0 | 0.00 | 0.00 | 0.00 | 77 | 1013.7 |
| 20260508153105 | 71 | 155 | 9.0 | 13.0 | 0.00 | 0.00 | 0.00 | 79 | 1013.7 |
| 20260508151606 | 70 | 165 | 6.0 | 10.0 | 0.00 | 0.00 | 0.00 | 79 | 1013.8 |
| 20260508150054 | 70 | 161 | 5.0 | 11.0 | 0.00 | 0.00 | 0.00 | 81 | 1013.8 |
| 20260508144552 | 69 | 150 | 9.0 | 14.0 | 0.00 | 0.00 | 0.00 | 83 | 1014.0 |
| 20260508143045 | 67 | 121 | 4.0 | 8.0 | 0.00 | 0.00 | 0.00 | 86 | 1013.9 |
| 20260508141549 | 65 | 78 | 2.0 | 8.0 | 0.00 | 0.00 | 0.00 | 88 | 1014.3 |
| 20260508140040 | 64 | 75 | 5.0 | 8.0 | 0.00 | 0.00 | 0.00 | 88 | 1014.1 |
| 20260508134534 | 62 | 136 | 2.0 | 8.0 | 0.00 | 0.00 | 0.00 | 88 | 1014.2 |
| 20260508133030 | 61 | 103 | 3.0 | 7.0 | 0.00 | 0.00 | 0.00 | 89 | 1014.4 |
| 20260508131528 | 61 | 148 | 4.0 | 8.0 | 0.00 | 0.00 | 0.00 | 89 | 1014.5 |
| 20260508130027 | 60 | 120 | 3.0 | 7.0 | 0.00 | 0.00 | 0.00 | 90 | 1014.6 |
| 20260508124525 | 58 | 105 | 2.0 | 4.0 | 0.00 | 0.00 | 0.00 | 89 | 1014.9 |
| 20260508123028 | 58 | 56 | 2.0 | 5.0 | 0.00 | 0.00 | 0.00 | 89 | 1015.3 |
| 20260508121525 | 58 | 16 | 4.0 | 9.0 | 0.00 | 0.00 | 0.00 | 89 | 1015.7 |
| 20260508120034 | 58 | 341 | 3.0 | 5.0 | 0.00 | 0.00 | 0.00 | 89 | 1015.3 |
| 20260508114522 | 58 | 145 | 0.0 | 3.0 | 0.00 | 0.01 | 0.00 | 88 | 1014.7 |
| 20260508113022 | 57 | 145 | 0.0 | 3.0 | 0.00 | 0.01 | 0.00 | 88 | 1014.3 |
| 20260508111522 | 57 | 138 | 2.0 | 7.0 | 0.00 | 0.01 | 0.00 | 88 | 1013.8 |
| 20260508110021 | 58 | 146 | 1.0 | 3.0 | 0.00 | 0.01 | 0.00 | 88 | 1013.5 |
| 20260508104520 | 58 | 150 | 5.0 | 8.0 | 0.00 | 0.01 | 0.00 | 88 | 1013.4 |
| 20260508103027 | 58 | 138 | 5.0 | 8.0 | 0.00 | 0.01 | 0.00 | 88 | 1013.6 |
| 20260508101523 | 57 | 123 | 3.0 | 6.0 | 0.00 | 0.01 | 0.00 | 87 | 1014.1 |
| 20260508100115 | 57 | 96 | 0.0 | 3.0 | 0.00 | 0.01 | 0.00 | 86 | 1014.6 |
| 20260508094514 | 57 | 95 | 2.0 | 4.0 | 0.00 | 0.01 | 0.00 | 87 | 1014.8 |
| 20260508093014 | 56 | 46 | 1.0 | 3.0 | 0.00 | 0.01 | 0.00 | 86 | 1015.0 |
| 20260508091513 | 56 | 302 | 4.0 | 7.0 | 0.00 | 0.01 | 0.00 | 87 | 1015.7 |
| 20260508090010 | 57 | 121 | 0.0 | 1.0 | 0.00 | 0.01 | 0.00 | 85 | 1014.5 |
| 20260508084508 | 57 | 121 | 2.0 | 4.0 | 0.00 | 0.01 | 0.00 | 84 | 1014.1 |